{"data":{"norad_id":58180,"intl_designator":"2023-167F","name":"STARLINK-30806","alt_names":[],"object_type":"PAYLOAD","status":"ACTIVE","operator":null,"country":"US","launch_date":"2023-10-30","launch_site_code":"AFETR","launch_vehicle":null,"mission":null,"orbit_class":"UNKNOWN","rcs_meters":null,"size_class":null,"mass_kg":null,"dimensions":null,"purposes":["comms"],"wikipedia_slug":null,"has_3d_model":false,"image_url":null,"decayed_at":null,"tle_current":{"epoch":"2026-09-20T07:21:45.603648Z","epoch_age_seconds":157183,"freshness":"FRESH","line1":"1 58180U 23167F   26263.30677782  .00098751  00000+0  20423-2 0  9992","line2":"2 58180  42.9915 114.3714 0016947 249.4243 110.4797 15.44613572160868","mean_motion":15.44613572,"eccentricity":0.0016947,"inclination_deg":42.9915,"raan_deg":114.3714,"arg_perigee_deg":249.4243,"mean_anomaly_deg":110.4797,"bstar":0.0020423,"rev_number":16086,"period_min":93.227201036144,"perigee_km":420.9717412234,"apogee_km":444.05576087901,"semimajor_km":6810.6507510512,"source":"CELESTRAK","updated_at":"2026-09-21T09:00:33.826859Z"}}}